This is the latest recevied weather packets stored in our database for station/object IK5YZV-10. If no packets are shown the sender has not sent any weather packets the latest 10 day(s).
| Time | Temp. | Humidity | Pressure | Rain* | Wind** | Luminosity | Snow |
|---|---|---|---|---|---|---|---|
| 1777597476 | 20.56° C | 47% | 1022.5 hPa | - | - | - | - |
| 1777596575 | 20.56° C | 46% | 1022.4 hPa | - | - | - | - |
| 1777595674 | 20.56° C | 46% | 1022.4 hPa | - | - | - | - |
| 1777594773 | 20.56° C | 44% | 1022.5 hPa | - | - | - | - |
| 1777593872 | 20.56° C | 45% | 1022.5 hPa | - | - | - | - |
| 1777592064 | 20.56° C | 44% | 1022.2 hPa | - | - | - | - |
| 1777591162 | 20.56° C | 44% | 1022.2 hPa | - | - | - | - |
| 1777590261 | 20.56° C | 45% | 1022 hPa | - | - | - | - |
| 1777589360 | 20.56° C | 44% | 1021.9 hPa | - | - | - | - |
| 1777588459 | 20.56° C | 45% | 1021.8 hPa | - | - | - | - |
| 1777587559 | 20.56° C | 45% | 1021.8 hPa | - | - | - | - |
| 1777586658 | 20.56° C | 48% | 1021.9 hPa | - | - | - | - |
| 1777585757 | 20.56° C | 46% | 1021.8 hPa | - | - | - | - |
| 1777584856 | 20.56° C | 48% | 1021.7 hPa | - | - | - | - |
| 1777583955 | 20.56° C | 47% | 1021.7 hPa | - | - | - | - |
| 1777583054 | 20.56° C | 46% | 1021.5 hPa | - | - | - | - |
| 1777582154 | 21.11° C | 48% | 1021.7 hPa | - | - | - | - |
| 1777581253 | 20.56° C | 47% | 1021.5 hPa | - | - | - | - |
| 1777580352 | 20.56° C | 47% | 1021.6 hPa | - | - | - | - |
| 1777579451 | 20.56° C | 48% | 1021.5 hPa | - | - | - | - |
| 1777578550 | 20.56° C | 49% | 1021.3 hPa | - | - | - | - |
| 1777577649 | 20.56° C | 52% | 1021.2 hPa | - | - | - | - |
| 1777576749 | 20.56° C | 53% | 1021 hPa | - | - | - | - |
| 1777575848 | 20.56° C | 53% | 1020.8 hPa | - | - | - | - |
| 1777574947 | 20.56° C | 54% | 1020.7 hPa | - | - | - | - |
* Rain since midnight (hover to see other rain measurements)
** Current wind speed in m/s (hover to see current wind gust speed)